Location: Exeidioux
(45.6312°N, 1.6819°E)
Time: 18:12:54
(UTC+00:00)

CSL-04 DEB - Pass Details

Date: 03 March 2021
Orbit: 546 x 626 km, 98.8° (Epoch: 16 April)

Event Time Altitude Azimuth Distance (km) Brightness Sun altitude
Rises 18:13:02 0° 14° (NNE) 2,731 7.7 -6.0°
Reaches altitude 10° 18:15:09 10° 14° (NNE) 1,838 6.8 -6.4°
Maximum altitude 18:19:06 87° 288° (WNW) 565 4.4 -7.1°
Drops below altitude 10° 18:23:07 10° 197° (SSW) 1,856 7.3 -7.8°
Sets 18:25:16 0° 197° (SSW) 2,760 8.1 -8.2°
